Time,TemperatureF,DewpointF,PressureIn,WindDirection,WindDirectionDegrees,WindSpeedMPH,WindSpeedGustMPH,Humidity,HourlyPrecipIn,Conditions,Clouds,dailyrainin,SoftwareType,DateUTC
2013-01-25 00:02:00,25.0,-99.9,-100.00,SE,140,9.0,-999.0,-999,0.00,,,0.00,,2013-01-25 06:02:00,
2013-01-25 00:12:00,25.0,-99.9,-100.00,SE,140,9.0,-999.0,-999,0.00,,,0.00,,2013-01-25 06:12:00,
2013-01-25 00:22:00,25.0,-99.9,-100.00,SE,140,9.0,-999.0,-999,0.00,,,0.00,,2013-01-25 06:22:00,
2013-01-25 00:32:00,25.0,-99.9,-100.00,SE,146,7.0,-999.0,-999,0.00,,,0.00,,2013-01-25 06:32:00,
2013-01-25 00:42:00,25.0,-99.9,-100.00,SE,146,7.0,-999.0,-999,0.00,,,0.00,,2013-01-25 06:42:00,
2013-01-25 00:52:00,25.0,-99.9,-100.00,SE,146,7.0,-999.0,-999,0.00,,,0.00,,2013-01-25 06:52:00,
2013-01-25 01:02:00,25.0,-99.9,-100.00,SE,144,7.0,-999.0,-999,0.00,,,0.00,,2013-01-25 07:02:00,
2013-01-25 01:11:00,25.0,-99.9,-100.00,SE,144,7.0,-999.0,-999,0.00,,,0.00,,2013-01-25 07:11:00,
2013-01-25 01:22:00,25.0,-99.9,-100.00,SE,144,7.0,-999.0,-999,0.00,,,0.00,,2013-01-25 07:22:00,
2013-01-25 01:32:00,25.0,-99.9,-100.00,SSE,147,5.0,-999.0,-999,0.00,,,0.00,,2013-01-25 07:32:00,
2013-01-25 01:42:00,25.0,-99.9,-100.00,SSE,147,5.0,-999.0,-999,0.00,,,0.00,,2013-01-25 07:42:00,
2013-01-25 01:52:00,25.0,-99.9,-100.00,SSE,147,5.0,-999.0,-999,0.00,,,0.00,,2013-01-25 07:52:00,
2013-01-25 02:02:00,25.0,-99.9,-100.00,SSE,153,3.0,-999.0,-999,0.00,,,0.00,,2013-01-25 08:02:00,
2013-01-25 02:12:00,25.0,-99.9,-100.00,SSE,153,3.0,-999.0,-999,0.00,,,0.00,,2013-01-25 08:12:00,
2013-01-25 02:22:00,25.0,-99.9,-100.00,SSE,153,3.0,-999.0,-999,0.00,,,0.00,,2013-01-25 08:22:00,
2013-01-25 02:32:00,25.0,-99.9,-100.00,SE,136,3.0,-999.0,-999,0.00,,,0.00,,2013-01-25 08:32:00,
2013-01-25 02:42:00,25.0,-99.9,-100.00,SE,136,3.0,-999.0,-999,0.00,,,0.00,,2013-01-25 08:42:00,
2013-01-25 02:52:00,25.0,-99.9,-100.00,SE,136,3.0,-999.0,-999,0.00,,,0.00,,2013-01-25 08:52:00,
2013-01-25 03:02:00,25.0,-99.9,-100.00,SSE,156,3.0,-999.0,-999,0.00,,,0.00,,2013-01-25 09:02:00,
2013-01-25 03:11:00,25.0,-99.9,-100.00,SSE,156,3.0,-999.0,-999,0.00,,,0.00,,2013-01-25 09:11:00,
2013-01-25 03:22:00,25.0,-99.9,-100.00,SSE,156,3.0,-999.0,-999,0.00,,,0.00,,2013-01-25 09:22:00,
2013-01-25 03:32:00,25.0,-99.9,-100.00,SSE,147,4.0,-999.0,-999,0.00,,,0.00,,2013-01-25 09:32:00,
2013-01-25 03:42:00,25.0,-99.9,-100.00,SSE,147,4.0,-999.0,-999,0.00,,,0.00,,2013-01-25 09:42:00,
2013-01-25 03:52:00,25.0,-99.9,-100.00,SSE,147,4.0,-999.0,-999,0.00,,,0.00,,2013-01-25 09:52:00,
2013-01-25 04:02:00,25.0,-99.9,-100.00,SSE,164,2.0,-999.0,-999,0.00,,,0.00,,2013-01-25 10:02:00,
2013-01-25 04:12:00,25.0,-99.9,-100.00,SSE,164,2.0,-999.0,-999,0.00,,,0.00,,2013-01-25 10:12:00,
2013-01-25 04:22:00,25.0,-99.9,-100.00,SSE,164,2.0,-999.0,-999,0.00,,,0.00,,2013-01-25 10:22:00,
2013-01-25 04:32:00,25.0,-99.9,-100.00,SSE,154,3.0,-999.0,-999,0.00,,,0.00,,2013-01-25 10:32:00,
2013-01-25 04:42:00,25.0,-99.9,-100.00,SSE,154,3.0,-999.0,-999,0.00,,,0.00,,2013-01-25 10:42:00,
2013-01-25 04:52:00,25.0,-99.9,-100.00,SSE,154,3.0,-999.0,-999,0.00,,,0.00,,2013-01-25 10:52:00,
2013-01-25 05:00:00,25.0,-99.9,-100.00,SSE,155,4.0,-999.0,-999,0.00,,,0.00,,2013-01-25 11:00:00,
2013-01-25 05:03:00,25.0,-99.9,-100.00,SSE,155,4.0,-999.0,-999,0.00,,,0.00,,2013-01-25 11:03:00,
2013-01-25 05:12:00,25.0,-99.9,-100.00,SSE,155,4.0,-999.0,-999,0.00,,,0.00,,2013-01-25 11:12:00,
2013-01-25 05:22:00,25.0,-99.9,-100.00,SSE,155,4.0,-999.0,-999,0.00,,,0.00,,2013-01-25 11:22:00,
2013-01-25 05:33:00,25.0,-99.9,-100.00,SSE,155,4.0,-999.0,-999,0.00,,,0.00,,2013-01-25 11:33:00,
2013-01-25 05:42:00,25.0,-99.9,-100.00,SSE,155,4.0,-999.0,-999,0.00,,,0.00,,2013-01-25 11:42:00,
2013-01-25 05:52:00,25.0,-99.9,-100.00,SSE,155,4.0,-999.0,-999,0.00,,,0.00,,2013-01-25 11:52:00,
2013-01-25 06:33:00,25.0,-99.9,-100.00,South,174,2.0,-999.0,-999,0.00,,,0.00,,2013-01-25 12:33:00,
2013-01-25 06:42:00,25.0,-99.9,-100.00,South,174,2.0,-999.0,-999,0.00,,,0.00,,2013-01-25 12:42:00,
2013-01-25 06:53:00,25.0,-99.9,-100.00,South,174,2.0,-999.0,-999,0.00,,,0.00,,2013-01-25 12:53:00,
2013-01-25 07:03:00,25.0,-99.9,-100.00,SW,215,1.0,-999.0,-999,0.00,,,0.00,,2013-01-25 13:03:00,
2013-01-25 07:12:00,25.0,-99.9,-100.00,SW,215,1.0,-999.0,-999,0.00,,,0.00,,2013-01-25 13:12:00,
2013-01-25 07:22:00,25.0,-99.9,-100.00,SW,215,1.0,-999.0,-999,0.00,,,0.00,,2013-01-25 13:22:00,
2013-01-25 07:33:00,25.0,-99.9,-100.00,SSW,211,2.0,-999.0,-999,0.00,,,0.00,,2013-01-25 13:33:00,
2013-01-25 07:43:00,25.0,-99.9,-100.00,SSW,211,2.0,-999.0,-999,0.00,,,0.00,,2013-01-25 13:43:00,
2013-01-25 07:53:00,25.0,-99.9,-100.00,SSW,211,2.0,-999.0,-999,0.00,,,0.00,,2013-01-25 13:53:00,
2013-01-25 08:03:00,25.0,-99.9,-100.00,West,277,2.0,-999.0,-999,0.00,,,0.00,,2013-01-25 14:03:00,
2013-01-25 08:13:00,25.0,-99.9,-100.00,West,277,2.0,-999.0,-999,0.00,,,0.00,,2013-01-25 14:13:00,
2013-01-25 08:23:00,25.0,-99.9,-100.00,West,277,2.0,-999.0,-999,0.00,,,0.00,,2013-01-25 14:23:00,
2013-01-25 08:33:00,25.0,-99.9,-100.00,WNW,282,3.0,-999.0,-999,0.00,,,0.00,,2013-01-25 14:33:00,
2013-01-25 08:42:00,25.0,-99.9,-100.00,WNW,282,3.0,-999.0,-999,0.00,,,0.00,,2013-01-25 14:42:00,
2013-01-25 08:53:00,25.0,-99.9,-100.00,WNW,282,3.0,-999.0,-999,0.00,,,0.00,,2013-01-25 14:53:00,
2013-01-25 09:03:00,26.0,-99.9,-100.00,WNW,282,4.0,-999.0,-999,0.00,,,0.00,,2013-01-25 15:03:00,
2013-01-25 09:13:00,26.0,-99.9,-100.00,WNW,282,4.0,-999.0,-999,0.00,,,0.00,,2013-01-25 15:13:00,
2013-01-25 09:23:00,26.0,-99.9,-100.00,WNW,282,4.0,-999.0,-999,0.00,,,0.00,,2013-01-25 15:23:00,
2013-01-25 09:33:00,27.0,-99.9,-100.00,West,264,2.0,-999.0,-999,0.00,,,0.00,,2013-01-25 15:33:00,
2013-01-25 09:43:00,27.0,-99.9,-100.00,West,264,2.0,-999.0,-999,0.00,,,0.00,,2013-01-25 15:43:00,
2013-01-25 09:53:00,27.0,-99.9,-100.00,West,264,2.0,-999.0,-999,0.00,,,0.00,,2013-01-25 15:53:00,
2013-01-25 10:04:00,28.0,-99.9,-100.00,West,270,4.0,-999.0,-999,0.00,,,0.00,,2013-01-25 16:04:00,
2013-01-25 10:12:00,28.0,-99.9,-100.00,West,270,4.0,-999.0,-999,0.00,,,0.00,,2013-01-25 16:12:00,
2013-01-25 10:23:00,28.0,-99.9,-100.00,West,270,4.0,-999.0,-999,0.00,,,0.00,,2013-01-25 16:23:00,
2013-01-25 10:33:00,29.0,-99.9,-100.00,WNW,289,5.0,-999.0,-999,0.00,,,0.00,,2013-01-25 16:33:00,
2013-01-25 10:43:00,29.0,-99.9,-100.00,WNW,289,5.0,-999.0,-999,0.00,,,0.00,,2013-01-25 16:43:00,
2013-01-25 10:53:00,29.0,-99.9,-100.00,WNW,289,5.0,-999.0,-999,0.00,,,0.00,,2013-01-25 16:53:00,
2013-01-25 11:03:00,29.0,-99.9,-100.00,WNW,299,8.0,-999.0,-999,0.00,,,0.00,,2013-01-25 17:03:00,
2013-01-25 11:12:00,29.0,-99.9,-100.00,WNW,299,8.0,-999.0,-999,0.00,,,0.00,,2013-01-25 17:12:00,
2013-01-25 11:23:00,29.0,-99.9,-100.00,WNW,299,8.0,-999.0,-999,0.00,,,0.00,,2013-01-25 17:23:00,
2013-01-25 11:33:00,30.0,-99.9,-100.00,WNW,287,7.0,-999.0,-999,0.00,,,0.00,,2013-01-25 17:33:00,
2013-01-25 11:43:00,30.0,-99.9,-100.00,WNW,287,7.0,-999.0,-999,0.00,,,0.00,,2013-01-25 17:43:00,
2013-01-25 11:53:00,30.0,-99.9,-100.00,WNW,287,7.0,-999.0,-999,0.00,,,0.00,,2013-01-25 17:53:00,
2013-01-25 12:04:00,32.0,-99.9,-100.00,WSW,256,4.0,-999.0,-999,0.00,,,0.00,,2013-01-25 18:04:00,
2013-01-25 12:12:00,32.0,-99.9,-100.00,WSW,256,4.0,-999.0,-999,0.00,,,0.00,,2013-01-25 18:12:00,
2013-01-25 12:24:00,32.0,-99.9,-100.00,WSW,256,4.0,-999.0,-999,0.00,,,0.00,,2013-01-25 18:24:00,
2013-01-25 12:34:00,33.0,-99.9,-100.00,West,278,5.0,-999.0,-999,0.00,,,0.00,,2013-01-25 18:34:00,
2013-01-25 12:43:00,33.0,-99.9,-100.00,West,278,5.0,-999.0,-999,0.00,,,0.00,,2013-01-25 18:43:00,
2013-01-25 12:53:00,33.0,-99.9,-100.00,West,278,5.0,-999.0,-999,0.00,,,0.00,,2013-01-25 18:53:00,
2013-01-25 13:03:00,34.0,-99.9,-100.00,West,269,4.0,-999.0,-999,0.00,,,0.00,,2013-01-25 19:03:00,
2013-01-25 13:12:00,34.0,-99.9,-100.00,West,269,4.0,-999.0,-999,0.00,,,0.00,,2013-01-25 19:12:00,
2013-01-25 13:23:00,34.0,-99.9,-100.00,West,269,4.0,-999.0,-999,0.00,,,0.00,,2013-01-25 19:23:00,
2013-01-25 13:33:00,36.0,-99.9,-100.00,West,261,7.0,-999.0,-999,0.00,,,0.00,,2013-01-25 19:33:00,
2013-01-25 13:43:00,36.0,-99.9,-100.00,West,261,7.0,-999.0,-999,0.00,,,0.00,,2013-01-25 19:43:00,
2013-01-25 13:54:00,36.0,-99.9,-100.00,West,261,7.0,-999.0,-999,0.00,,,0.00,,2013-01-25 19:54:00,
2013-01-25 14:03:00,37.0,-99.9,-100.00,WSW,248,3.0,-999.0,-999,0.00,,,0.00,,2013-01-25 20:03:00,
2013-01-25 14:13:00,37.0,-99.9,-100.00,WSW,248,3.0,-999.0,-999,0.00,,,0.00,,2013-01-25 20:13:00,
2013-01-25 14:23:00,37.0,-99.9,-100.00,WSW,248,3.0,-999.0,-999,0.00,,,0.00,,2013-01-25 20:23:00,
2013-01-25 14:33:00,38.0,-99.9,-100.00,West,262,4.0,-999.0,-999,0.00,,,0.00,,2013-01-25 20:33:00,
2013-01-25 14:43:00,38.0,-99.9,-100.00,West,262,4.0,-999.0,-999,0.00,,,0.00,,2013-01-25 20:43:00,
2013-01-25 14:53:00,38.0,-99.9,-100.00,West,262,4.0,-999.0,-999,0.00,,,0.00,,2013-01-25 20:53:00,
2013-01-25 15:02:00,40.0,-99.9,-100.00,WSW,246,4.0,-999.0,-999,0.00,,,0.00,,2013-01-25 21:02:00,
2013-01-25 15:12:00,40.0,-99.9,-100.00,WSW,246,4.0,-999.0,-999,0.00,,,0.00,,2013-01-25 21:12:00,
2013-01-25 15:23:00,40.0,-99.9,-100.00,WSW,246,4.0,-999.0,-999,0.00,,,0.00,,2013-01-25 21:23:00,
2013-01-25 15:33:00,40.0,-99.9,-100.00,West,272,6.0,-999.0,-999,0.00,,,0.00,,2013-01-25 21:33:00,
2013-01-25 15:43:00,40.0,-99.9,-100.00,West,272,6.0,-999.0,-999,0.00,,,0.00,,2013-01-25 21:43:00,
2013-01-25 15:52:00,40.0,-99.9,-100.00,West,272,6.0,-999.0,-999,0.00,,,0.00,,2013-01-25 21:52:00,
2013-01-25 16:03:00,42.0,-99.9,-100.00,West,271,5.0,-999.0,-999,0.00,,,0.00,,2013-01-25 22:03:00,
2013-01-25 16:12:00,42.0,-99.9,-100.00,West,271,5.0,-999.0,-999,0.00,,,0.00,,2013-01-25 22:12:00,
2013-01-25 16:23:00,42.0,-99.9,-100.00,West,271,5.0,-999.0,-999,0.00,,,0.00,,2013-01-25 22:23:00,
2013-01-25 16:33:00,42.0,-99.9,-100.00,West,266,4.0,-999.0,-999,0.00,,,0.00,,2013-01-25 22:33:00,
2013-01-25 16:42:00,42.0,-99.9,-100.00,West,266,4.0,-999.0,-999,0.00,,,0.00,,2013-01-25 22:42:00,
2013-01-25 16:53:00,42.0,-99.9,-100.00,West,266,4.0,-999.0,-999,0.00,,,0.00,,2013-01-25 22:53:00,
2013-01-25 17:03:00,42.0,-99.9,-100.00,West,269,3.0,-999.0,-999,0.00,,,0.00,,2013-01-25 23:03:00,
2013-01-25 17:12:00,42.0,-99.9,-100.00,West,269,3.0,-999.0,-999,0.00,,,0.00,,2013-01-25 23:12:00,
2013-01-25 17:22:00,42.0,-99.9,-100.00,West,269,3.0,-999.0,-999,0.00,,,0.00,,2013-01-25 23:22:00,
2013-01-25 17:32:00,40.0,-99.9,-100.00,WSW,251,3.0,-999.0,-999,0.00,,,0.00,,2013-01-25 23:32:00,
2013-01-25 17:42:00,40.0,-99.9,-100.00,WSW,251,3.0,-999.0,-999,0.00,,,0.00,,2013-01-25 23:42:00,
2013-01-25 17:53:00,40.0,-99.9,-100.00,WSW,251,3.0,-999.0,-999,0.00,,,0.00,,2013-01-25 23:53:00,
2013-01-25 18:03:00,39.0,-99.9,-100.00,SW,232,3.0,-999.0,-999,0.00,,,0.00,,2013-01-26 00:03:00,
2013-01-25 18:12:00,39.0,-99.9,-100.00,SW,232,3.0,-999.0,-999,0.00,,,0.00,,2013-01-26 00:12:00,
2013-01-25 18:22:00,39.0,-99.9,-100.00,SW,232,3.0,-999.0,-999,0.00,,,0.00,,2013-01-26 00:22:00,
2013-01-25 18:33:00,38.0,-99.9,-100.00,WSW,246,8.0,-999.0,-999,0.00,,,0.00,,2013-01-26 00:33:00,
2013-01-25 18:42:00,38.0,-99.9,-100.00,WSW,246,8.0,-999.0,-999,0.00,,,0.00,,2013-01-26 00:42:00,
2013-01-25 18:53:00,38.0,-99.9,-100.00,WSW,246,8.0,-999.0,-999,0.00,,,0.00,,2013-01-26 00:53:00,
2013-01-25 19:02:00,38.0,-99.9,-100.00,WSW,249,5.0,-999.0,-999,0.00,,,0.00,,2013-01-26 01:02:00,
2013-01-25 19:12:00,38.0,-99.9,-100.00,WSW,249,5.0,-999.0,-999,0.00,,,0.00,,2013-01-26 01:12:00,
2013-01-25 19:22:00,38.0,-99.9,-100.00,WSW,249,5.0,-999.0,-999,0.00,,,0.00,,2013-01-26 01:22:00,
2013-01-25 19:32:00,37.0,-99.9,-100.00,West,277,4.0,-999.0,-999,0.00,,,0.00,,2013-01-26 01:32:00,
2013-01-25 19:42:00,37.0,-99.9,-100.00,West,277,4.0,-999.0,-999,0.00,,,0.00,,2013-01-26 01:42:00,
2013-01-25 19:53:00,37.0,-99.9,-100.00,West,277,4.0,-999.0,-999,0.00,,,0.00,,2013-01-26 01:53:00,
2013-01-25 20:02:00,37.0,-99.9,-100.00,West,264,3.0,-999.0,-999,0.00,,,0.00,,2013-01-26 02:02:00,
2013-01-25 20:12:00,37.0,-99.9,-100.00,West,264,3.0,-999.0,-999,0.00,,,0.00,,2013-01-26 02:12:00,
2013-01-25 20:22:00,37.0,-99.9,-100.00,West,264,3.0,-999.0,-999,0.00,,,0.00,,2013-01-26 02:22:00,
2013-01-25 20:32:00,36.0,-99.9,-100.00,NNW,331,3.0,-999.0,-999,0.00,,,0.00,,2013-01-26 02:32:00,
2013-01-25 20:42:00,36.0,-99.9,-100.00,NNW,331,3.0,-999.0,-999,0.00,,,0.00,,2013-01-26 02:42:00,
2013-01-25 20:53:00,36.0,-99.9,-100.00,NNW,331,3.0,-999.0,-999,0.00,,,0.00,,2013-01-26 02:53:00,
2013-01-25 21:02:00,34.0,-99.9,-100.00,WNW,287,1.0,-999.0,-999,0.00,,,0.00,,2013-01-26 03:02:00,
2013-01-25 21:12:00,34.0,-99.9,-100.00,WNW,287,1.0,-999.0,-999,0.00,,,0.00,,2013-01-26 03:12:00,
2013-01-25 21:22:00,34.0,-99.9,-100.00,WNW,287,1.0,-999.0,-999,0.00,,,0.00,,2013-01-26 03:22:00,
2013-01-25 21:32:00,32.0,-99.9,-100.00,NE,42,1.0,-999.0,-999,0.00,,,0.00,,2013-01-26 03:32:00,
2013-01-25 21:43:00,32.0,-99.9,-100.00,NE,42,1.0,-999.0,-999,0.00,,,0.00,,2013-01-26 03:43:00,
2013-01-25 21:52:00,32.0,-99.9,-100.00,NE,42,1.0,-999.0,-999,0.00,,,0.00,,2013-01-26 03:52:00,
2013-01-25 22:02:00,34.0,-99.9,-100.00,WNW,303,5.0,-999.0,-999,0.00,,,0.00,,2013-01-26 04:02:00,
2013-01-25 22:12:00,34.0,-99.9,-100.00,WNW,303,5.0,-999.0,-999,0.00,,,0.00,,2013-01-26 04:12:00,
2013-01-25 22:22:00,34.0,-99.9,-100.00,WNW,303,5.0,-999.0,-999,0.00,,,0.00,,2013-01-26 04:22:00,
2013-01-25 22:32:00,33.0,-99.9,-100.00,NNW,327,3.0,-999.0,-999,0.00,,,0.00,,2013-01-26 04:32:00,
2013-01-25 22:43:00,33.0,-99.9,-100.00,NNW,327,3.0,-999.0,-999,0.00,,,0.00,,2013-01-26 04:43:00,
2013-01-25 22:52:00,33.0,-99.9,-100.00,NNW,327,3.0,-999.0,-999,0.00,,,0.00,,2013-01-26 04:52:00,
2013-01-25 23:03:00,32.0,-99.9,-100.00,NNW,343,3.0,-999.0,-999,0.00,,,0.00,,2013-01-26 05:03:00,
2013-01-25 23:12:00,32.0,-99.9,-100.00,NNW,343,3.0,-999.0,-999,0.00,,,0.00,,2013-01-26 05:12:00,
2013-01-25 23:23:00,32.0,-99.9,-100.00,NNW,343,3.0,-999.0,-999,0.00,,,0.00,,2013-01-26 05:23:00,
2013-01-25 23:33:00,33.0,-99.9,-100.00,NNW,345,6.0,-999.0,-999,0.00,,,0.00,,2013-01-26 05:33:00,
2013-01-25 23:42:00,33.0,-99.9,-100.00,NNW,345,6.0,-999.0,-999,0.00,,,0.00,,2013-01-26 05:42:00,
2013-01-25 23:53:00,33.0,-99.9,-100.00,NNW,345,6.0,-999.0,-999,0.00,,,0.00,,2013-01-26 05:53:00,